TimeMDT,TemperatureF,Dew PointF,Humidity,Sea Level PressureIn,VisibilityMPH,Wind Direction,Wind SpeedMPH,Gust SpeedMPH,PrecipitationIn,Events,Conditions,WindDirDegrees,DateUTC
12:53 AM,73.0,18.0,12,29.68,10.0,West,3.5,-,N/A,,Clear,280,2013-06-10 06:53:00
1:53 AM,68.0,18.0,15,29.68,10.0,Calm,Calm,-,N/A,,Clear,0,2013-06-10 07:53:00
2:53 AM,66.9,17.1,15,29.68,10.0,West,6.9,-,N/A,,Clear,260,2013-06-10 08:53:00
3:53 AM,64.0,17.1,16,29.68,10.0,Calm,Calm,-,N/A,,Clear,0,2013-06-10 09:53:00
4:53 AM,62.1,16.0,17,29.70,10.0,SW,4.6,-,N/A,,Clear,230,2013-06-10 10:53:00
5:53 AM,62.1,18.0,18,29.72,10.0,WSW,3.5,-,N/A,,Clear,240,2013-06-10 11:53:00
6:53 AM,64.0,19.9,18,29.73,10.0,Calm,Calm,-,N/A,,Clear,0,2013-06-10 12:53:00
7:53 AM,73.9,25.0,16,29.73,10.0,SE,3.5,-,N/A,,Clear,140,2013-06-10 13:53:00
8:53 AM,82.0,26.1,13,29.73,10.0,SE,8.1,-,N/A,,Clear,130,2013-06-10 14:53:00
9:53 AM,86.0,24.1,10,29.73,10.0,SE,6.9,-,N/A,,Clear,130,2013-06-10 15:53:00
10:53 AM,91.0,23.0,8,29.72,10.0,Variable,4.6,-,N/A,,Clear,0,2013-06-10 16:53:00
11:53 AM,95.0,23.0,8,29.70,10.0,SE,6.9,-,N/A,,Clear,130,2013-06-10 17:53:00
12:53 PM,99.0,19.0,6,29.68,10.0,SW,16.1,25.3,N/A,,Clear,230,2013-06-10 18:53:00
1:53 PM,100.9,17.1,5,29.66,10.0,SW,23.0,31.1,N/A,,Clear,220,2013-06-10 19:53:00
2:53 PM,100.0,16.0,5,29.65,10.0,SSW,19.6,32.2,N/A,,Clear,200,2013-06-10 20:53:00
3:53 PM,99.0,15.1,5,29.65,10.0,SW,16.1,33.4,N/A,,Clear,220,2013-06-10 21:53:00
4:53 PM,100.0,15.1,5,29.63,10.0,WSW,23.0,29.9,N/A,,Clear,250,2013-06-10 22:53:00
5:53 PM,95.0,10.0,4,29.63,10.0,WSW,24.2,32.2,N/A,,Clear,240,2013-06-10 23:53:00
6:53 PM,97.0,9.0,4,29.61,10.0,SW,19.6,32.2,N/A,,Clear,220,2013-06-11 00:53:00
7:53 PM,93.9,6.1,4,29.59,10.0,WSW,19.6,28.8,N/A,,Clear,240,2013-06-11 01:53:00
8:53 PM,89.1,6.1,4,29.59,10.0,SW,9.2,-,N/A,,Clear,230,2013-06-11 02:53:00
9:53 PM,81.0,7.0,6,29.61,10.0,SW,8.1,-,N/A,,Clear,220,2013-06-11 03:53:00
10:53 PM,78.1,8.1,7,29.62,10.0,SW,9.2,-,N/A,,Clear,220,2013-06-11 04:53:00
11:53 PM,79.0,8.1,7,29.61,10.0,SW,16.1,-,N/A,,Clear,220,2013-06-11 05:53:00